Погода в Формии

Италия     41°15′30″N   13°36′40″E
темп.,
°C
ветер,
м/с
пор.,
м/с
влажн.,
%
обл.,
%
осадки,
мм/ч
давл.,
гПа
погр.,
м
16 мая, вс
вс1623:00+13ссз3482100 0.0 1014120
02:00+13ссз1277100 0.0 1013108
05:00+13св1172100 0.0 101369
08:00+15в3271100 0.0 1014184
11:00+17юв447375 0.0 1014501
14:00+18юв337693 0.0 1014464
17:00+17юв4482100 0.0 1013389
20:00+16вюв458682 0.0 1012184
17 мая, пн
пн1723:00+15вюв4585100 0.0 1012228
02:00+16вюв468975 0.0 1011354
05:00+15в448847 0.0 1010193
08:00+16всв338134 0.0 1011320
11:00+18ююз227757 0.0 1011601
14:00+19зюз68705 0.1 1012979
17:00+18з67585 0.0 1011631
20:00+15з557667 0.0 1012296
18 мая, вт
вт1823:00+13сз13830 0.0 1013238
02:00+12св32872 0.0 1014103
05:00+12св238580 0.0 1015122
08:00+15всв2377100 0.0 1016308
11:00+18ююв3266100 0.0 1016735
14:00+17юз327466 0.0 1017566
17:00+18зюз44690 0.0 1016535
20:00+15з56825 0.0 1016276
19 мая, ср
ср1923:00+14сз35791 0.0 1017365
02:00+14зсз23780 0.0 1017332
05:00+13сз237848 0.0 1016274
08:00+15юв0171100 0.0 1017528
11:00+17юв2268100 0.0 1017697
14:00+17ююз4271100 0.1 1017615
17:00+17зюз337028 0.1 1016665
20:00+15зюз23802 0.1 1016253
20 мая, чт
чт2023:00+14св11842 0.1 1017114
02:00+13всв21866 0.2 1016111
05:00+12св2286100 0.1 101583
08:00+14ссв1279100 0.4 1016124
11:00+16ююз21702 0.5 1016645
14:00+17юз22678 1.7 1016646
17:00+17всв336983 3.0 1017381
20:00+13с33802 7.8 1019110